[[{"header":{"parameterUnit":"m.s-1","parameterCategory":1,"la1":30.2991,"la2":30.254,"lo1":-89.0895,"lo2":-89.0444,"dy":0.0017,"dx":0.0017,"nx":28,"ny":28,"refTime":"2025-12-27T09:00:00:Z","depth":0,"parameterNumber":2,"parameterNumberName":"U-component_of_WINDS"},"data":[0,0,0,0,0,0,0,0,0,0,0,0,0,0,0,0,0,0,0,0,0,0,0,0,0,0,0,0,0,0,0,0,0,0,0,0,0,0,0,0,0,0,0,0,0,0,0,0,0,0,0,0,0,0,0,0,0,0,-1.5832,-1.5832,0,-1.5843,-1.5844,-1.5844,-1.5849,-1.5849,-1.585,-1.585,-1.5861,-1.5861,-1.5861,0,0,0,0,0,0,0,0,0,0,0,0,0,-1.5814,-1.5814,-1.5832,-1.5832,-1.5832,-1.5843,-1.5844,-1.5844,-1.5849,-1.5849,-1.585,-1.585,-1.586,-1.5861,-1.5861,0,0,0,0,0,0,0,0,0,0,0,0,0,-1.5823,-1.5814,-1.5832,-1.5836,-1.5837,-1.5843,-1.5844,-1.5844,-1.5849,-1.5849,-1.585,-1.585,-1.586,-1.5861,-1.5861,-1.5864,0,0,-1.5863,-1.5863,0,0,0,0,0,0,0,0,-1.5823,-1.5824,-1.5836,-1.5836,-1.5837,-1.5845,-1.5841,-1.585,-1.5849,-1.5845,-1.585,-1.585,-1.5855,-1.5856,-1.5858,-1.5864,-1.5865,-1.5863,-1.5863,-1.5863,-1.5863,0,0,0,0,0,0,0,-1.5822,-1.5823,-1.5836,-1.5836,-1.5837,-1.5838,-1.5839,-1.5843,-1.585,-1.5845,-1.5846,-1.5847,-1.5856,-1.5858,-1.5859,-1.5865,-1.5863,-1.5863,-1.5863,-1.5863,-1.5873,-1.5873,0,0,0,0,0,0,-1.5821,-1.5823,-1.5836,-1.5837,-1.583,-1.5838,-1.5839,-1.5842,-1.585,-1.5851,-1.5847,-1.5847,-1.5857,-1.5858,-1.5859,-1.5862,-1.5863,-1.5863,-1.5864,-1.5873,-1.5873,-1.5873,0,0,0,0,0,0,-1.582,-1.5822,-1.5836,-1.583,-1.5832,-1.5838,-1.5842,-1.5843,-1.5845,-1.5851,-1.5852,-1.5848,-1.5857,-1.5858,-1.5862,-1.5863,-1.5864,-1.5864,-1.5873,-1.5873,-1.5873,-1.5868,0,0,0,0,0,0,-1.582,-1.5822,-1.5823,-1.583,-1.5832,-1.5839,-1.5842,-1.5843,-1.5846,-1.5846,-1.5852,-1.5854,-1.5857,-1.5862,-1.5863,-1.5863,-1.5864,-1.5873,-1.5873,-1.5873,-1.5869,-1.5868,-1.5868,0,0,0,0,0,-1.5819,-1.5821,-1.5823,-1.5825,-1.5834,-1.5839,-1.584,-1.5845,-1.5846,-1.5847,-1.5851,-1.5853,-1.5862,-1.5862,-1.5863,-1.5864,-1.5873,-1.5873,-1.5873,-1.5869,-1.5868,-1.5868,0,0,0,0,0,0,-1.5814,-1.5822,-1.5824,-1.5829,-1.5833,-1.584,-1.5842,-1.5844,-1.5848,-1.5849,-1.5854,-1.5855,-1.5859,-1.5862,-1.5861,-1.5866,-1.5868,-1.5868,-1.5864,-1.5864,-1.5864,-1.5863,-1.5865,0,0,0,0,0,-1.5814,-1.5818,-1.5824,-1.5828,-1.583,-1.5835,-1.5838,-1.5841,-1.5846,-1.5847,-1.5852,-1.5856,-1.586,-1.5862,-1.5866,-1.5869,-1.587,-1.587,-1.5869,-1.5869,-1.5869,-1.5871,-1.587,-1.5873,-1.5873,-1.5873,0,0,-1.5813,-1.5818,-1.582,-1.5827,-1.5831,-1.5834,-1.5837,-1.5841,-1.5843,-1.5848,-1.5852,-1.5855,-1.586,-1.5863,-1.5865,-1.5866,-1.5869,-1.5869,-1.5869,-1.5869,-1.5871,-1.587,-1.587,-1.5873,-1.5873,-1.5873,0,0,-1.5813,-1.5817,-1.582,-1.5824,-1.5829,-1.5833,-1.5833,-1.584,-1.5842,-1.5846,-1.585,-1.5852,-1.5859,-1.5862,-1.5864,-1.5865,-1.5867,-1.5866,-1.5864,-1.5865,-1.5865,-1.5865,-1.5865,-1.5865,-1.5866,-1.5866,-1.5866,0,-1.5811,-1.5817,-1.5821,-1.5825,-1.5827,-1.5832,-1.5835,-1.5838,-1.5844,-1.5846,-1.5847,-1.5854,-1.5858,-1.5862,-1.5862,-1.5864,-1.5865,-1.5865,-1.5865,-1.5865,-1.5865,-1.5865,-1.5865,-1.5866,-1.5866,-1.5866,-1.5866,0,-1.5814,-1.5817,-1.5819,-1.5825,-1.5828,-1.5831,-1.5836,-1.5838,-1.5841,-1.5844,-1.5848,-1.5852,-1.5857,-1.5858,-1.586,-1.5862,-1.5862,-1.5864,-1.5866,-1.5864,-1.5864,-1.5864,-1.5865,-1.5865,-1.5866,-1.5866,0,0,-1.5811,-1.582,-1.582,-1.5823,-1.5829,-1.5832,-1.5834,-1.5839,-1.5841,-1.5845,-1.5847,-1.5852,-1.5853,-1.5856,-1.5859,-1.586,-1.5859,-1.5862,-1.5862,-1.5861,-1.5861,-1.5859,-1.5859,-1.5861,-1.5861,-1.5861,-1.586,0,-1.5812,-1.5818,-1.5822,-1.5826,-1.5829,-1.5833,-1.5835,-1.5839,-1.5842,-1.5845,-1.5848,-1.5851,-1.5853,-1.5855,-1.5856,-1.5859,-1.586,-1.5859,-1.5863,-1.5863,-1.5861,-1.5859,-1.5858,-1.5857,-1.586,-1.586,-1.586,0,-1.5814,-1.5817,-1.5822,-1.5827,-1.5828,-1.5831,-1.5835,-1.5837,-1.5841,-1.5843,-1.5846,-1.5849,-1.5852,-1.5853,-1.5857,-1.5856,-1.5858,-1.586,-1.586,-1.586,-1.5862,-1.5859,-1.5857,-1.5857,-1.586,-1.586,-1.586,0,-1.5811,-1.5817,-1.5821,-1.5823,-1.5829,-1.583,-1.5833,-1.5837,-1.5839,-1.5842,-1.5844,-1.5847,-1.5849,-1.5852,-1.5855,-1.5856,-1.5858,-1.586,-1.586,-1.586,-1.586,-1.586,-1.5858,-1.5861,-1.5861,-1.5861,-1.5861,0,-1.5811,-1.5814,-1.5819,-1.5821,-1.5824,-1.5828,-1.583,-1.5833,-1.5837,-1.5839,-1.5842,-1.5844,-1.5849,-1.5851,-1.5854,-1.5856,-1.5857,-1.5859,-1.586,-1.5858,-1.5858,-1.586,-1.586,-1.5861,-1.5861,-1.5861,-1.5861,0,-1.5809,-1.5813,-1.5817,-1.5822,-1.5823,-1.5825,-1.5829,-1.5831,-1.5834,-1.5837,-1.5838,-1.5842,-1.5845,-1.5849,-1.5853,-1.5855,-1.5857,-1.5858,-1.5855,-1.5856,-1.5855,-1.5855,-1.5854,-1.5853,-1.5857,-1.5857,-1.5857,0,-1.5809,-1.5811,-1.5816,-1.5818,-1.582,-1.5823,-1.5825,-1.5829,-1.5831,-1.5836,-1.5837,-1.584,-1.5843,-1.5847,-1.5851,-1.5854,-1.5855,-1.5854,-1.5855,-1.5854,-1.5854,-1.5854,-1.5854,-1.5854,-1.5854,-1.5854,-1.5854,0,-1.5808,-1.581,-1.5813,-1.5816,-1.5819,-1.5822,-1.5825,-1.5826,-1.583,-1.5832,-1.5835,-1.5838,-1.5842,-1.5845,-1.5848,-1.585,-1.5852,-1.5853,-1.5853,-1.5852,-1.585,-1.5851,-1.5854,-1.5853,-1.5853,-1.5853,-1.5853,-1.5853,-1.5807,-1.5808,-1.5812,-1.5815,-1.5818,-1.582,-1.5822,-1.5825,-1.5828,-1.5831,-1.5833,-1.5836,-1.5839,-1.5844,-1.5846,-1.5848,-1.5849,-1.585,-1.585,-1.5849,-1.5849,-1.585,-1.5849,-1.5849,-1.5849,-1.5849,-1.5849,0,-1.5806,-1.5808,-1.5811,-1.5815,-1.5817,-1.5819,-1.5822,-1.5824,-1.5826,-1.5829,-1.5832,-1.5835,-1.5838,-1.5841,-1.5844,-1.5845,-1.5846,-1.5846,-1.5845,-1.5846,-1.5848,-1.5848,-1.5845,-1.5845,-1.5845,-1.5845,-1.5845,-1.5845,-1.5805,-1.5808,-1.581,-1.5814,-1.5816,-1.5819,-1.582,-1.5823,-1.5825,-1.5828,-1.5831,-1.5833,-1.5836,-1.5839,-1.5841,-1.5842,-1.5843,-1.5842,-1.5843,-1.5845,-1.5846,-1.5846,-1.5846,-1.5842,-1.5842,-1.5841,-1.5841,-1.5841]},{"header":{"parameterUnit":"m.s-1","parameterCategory":1,"la1":30.2991,"la2":30.254,"lo1":-89.0895,"lo2":-89.0444,"dy":0.0017,"dx":0.0017,"nx":28,"ny":28,"refTime":"2025-12-27T09:00:00:Z","depth":0,"parameterNumber":3,"parameterNumberName":"V-component_of_WINDS"},"data":[0,0,0,0,0,0,0,0,0,0,0,0,0,0,0,0,0,0,0,0,0,0,0,0,0,0,0,0,0,0,0,0,0,0,0,0,0,0,0,0,0,0,0,0,0,0,0,0,0,0,0,0,0,0,0,0,0,0,3.9381,3.9381,0,3.9343,3.9343,3.9342,3.9287,3.9286,3.9285,3.9284,3.9245,3.9245,3.9245,0,0,0,0,0,0,0,0,0,0,0,0,0,3.9407,3.9407,3.9381,3.9381,3.938,3.9343,3.9343,3.9342,3.9287,3.9286,3.9285,3.9284,3.9245,3.9245,3.9245,0,0,0,0,0,0,0,0,0,0,0,0,0,3.9385,3.9407,3.9381,3.9348,3.9345,3.9343,3.9343,3.9342,3.9287,3.9286,3.9285,3.9283,3.9245,3.9245,3.9245,3.9272,0,0,3.9244,3.9244,0,0,0,0,0,0,0,0,3.9386,3.9384,3.9354,3.9351,3.9347,3.9318,3.9337,3.9319,3.9288,3.9309,3.9284,3.9283,3.9271,3.9268,3.9264,3.927,3.9269,3.9244,3.9244,3.9244,3.9244,0,0,0,0,0,0,0,3.9388,3.9386,3.9366,3.9353,3.9349,3.9336,3.9331,3.9334,3.9299,3.9307,3.9303,3.93,3.9269,3.9265,3.9263,3.9268,3.9244,3.9244,3.9244,3.9244,3.9297,3.9299,0,0,0,0,0,0,3.9394,3.9387,3.9367,3.9365,3.9364,3.9337,3.9331,3.9329,3.9298,3.9292,3.9301,3.9297,3.9266,3.9263,3.9261,3.9293,3.9244,3.9244,3.9244,3.9296,3.9297,3.9299,0,0,0,0,0,0,3.9395,3.9393,3.9369,3.9375,3.9371,3.9338,3.9336,3.9329,3.9325,3.9293,3.9287,3.9303,3.9265,3.9262,3.927,3.9291,3.9244,3.9243,3.9294,3.9296,3.9298,3.9356,0,0,0,0,0,0,3.9396,3.9394,3.9403,3.9376,3.9371,3.9378,3.9337,3.9329,3.9325,3.932,3.9294,3.9288,3.9263,3.9271,3.927,3.929,3.9243,3.9292,3.9295,3.9298,3.9352,3.936,3.9366,0,0,0,0,0,3.9397,3.9421,3.9404,3.9402,3.9382,3.938,3.9377,3.9348,3.9327,3.9337,3.9317,3.9289,3.9289,3.9272,3.9271,3.9291,3.929,3.9294,3.9297,3.9349,3.9358,3.9366,0,0,0,0,0,0,3.9451,3.9416,3.9398,3.9413,3.94,3.937,3.9382,3.9358,3.9351,3.9346,3.931,3.9305,3.9318,3.9305,3.9288,3.9317,3.9285,3.9289,3.9325,3.9334,3.9341,3.9344,3.9243,0,0,0,0,0,3.9465,3.9466,3.9435,3.9451,3.9446,3.9415,3.9413,3.9392,3.9376,3.9371,3.9351,3.9338,3.9335,3.9333,3.9328,3.9349,3.9344,3.9362,3.937,3.9376,3.9379,3.9392,3.94,3.9311,3.931,3.931,0,0,3.9493,3.9474,3.9477,3.9462,3.9449,3.9451,3.9411,3.9414,3.9416,3.9371,3.9379,3.9364,3.9347,3.9362,3.9368,3.9352,3.9403,3.938,3.9385,3.9386,3.9396,3.9404,3.9412,3.9313,3.9312,3.9312,0,0,3.9546,3.9531,3.9544,3.9533,3.9514,3.9494,3.9497,3.9472,3.9461,3.9468,3.9435,3.9436,3.9431,3.942,3.9415,3.9466,3.9441,3.9465,3.9503,3.9515,3.9523,3.9529,3.9548,3.9556,3.9468,3.9469,3.9469,0,3.9584,3.9585,3.9554,3.956,3.9555,3.9515,3.9528,3.9519,3.95,3.9498,3.9479,3.9474,3.9459,3.9472,3.9485,3.9481,3.9485,3.9468,3.9524,3.953,3.9535,3.9554,3.9561,3.9472,3.9471,3.9471,3.9471,0,3.9633,3.9635,3.9648,3.9631,3.9628,3.9637,3.9608,3.9608,3.9587,3.9569,3.9578,3.9559,3.9551,3.9552,3.9532,3.9564,3.9554,3.9531,3.9499,3.9547,3.9564,3.9571,3.9476,3.9475,3.9474,3.9473,0,0,3.9719,3.9686,3.9691,3.9684,3.9661,3.9662,3.9671,3.9663,3.9665,3.9653,3.966,3.9658,3.9636,3.963,3.9608,3.9618,3.9662,3.9594,3.9593,3.9608,3.9698,3.9717,3.9726,3.9645,3.9647,3.9648,3.97,0,3.9769,3.9781,3.9754,3.9773,3.9776,3.9738,3.9746,3.9733,3.9717,3.9717,3.9698,3.9698,3.9669,3.9665,3.9674,3.9655,3.968,3.9651,3.9653,3.9653,3.966,3.9734,3.9754,3.9805,3.9706,3.9708,3.9708,0,3.9828,3.9821,3.9841,3.9819,3.9819,3.9826,3.9818,3.9817,3.9803,3.979,3.9784,3.9759,3.9766,3.9735,3.9746,3.9727,3.9726,3.9717,3.9718,3.9718,3.9685,3.9738,3.982,3.9828,3.9718,3.9717,3.9717,0,3.9891,3.9886,3.9898,3.9892,3.9866,3.9873,3.9862,3.9846,3.9844,3.9836,3.9835,3.9828,3.9825,3.9821,3.9795,3.9775,3.981,3.9776,3.9801,3.9802,3.9811,3.9811,3.9895,3.9808,3.9808,3.9808,3.9808,0,3.995,3.9964,3.9926,3.9933,3.9948,3.9917,3.9933,3.9918,3.9905,3.991,3.9876,3.9882,3.9846,3.9848,3.9828,3.9841,3.9839,3.983,3.9825,3.9834,3.9835,3.9834,3.983,3.981,3.9809,3.9809,3.9809,0,4.0023,3.9997,4.0008,3.9983,3.9977,3.999,3.9968,3.9975,3.9956,3.9963,3.9963,3.9934,3.9935,3.9908,3.9903,3.9889,3.9912,3.9899,3.9917,3.9914,3.994,3.9939,4.0028,4.0039,3.9944,3.9945,3.9945,0,4.0063,4.0073,4.005,4.0051,4.0042,4.0043,4.0041,4.001,4.001,3.9995,4.0003,4.0001,3.9998,4.0,3.9979,3.9976,3.9964,3.9995,3.9963,3.9973,3.9966,3.9967,3.9968,4.0003,4.0004,4.0005,4.0005,0,4.0138,4.0125,4.0123,4.0117,4.0116,4.0109,4.0101,4.0104,4.007,4.0071,4.0072,4.0069,4.0064,4.0063,4.0056,4.0045,4.0021,4.0016,4.0022,4.0032,4.0042,4.0039,3.9937,4.0014,4.0013,4.0013,4.0012,4.0012,4.0196,4.0205,4.019,4.0189,4.018,4.0173,4.0178,4.0161,4.0161,4.0155,4.0137,4.014,4.0127,4.0115,4.0107,4.011,4.0094,4.0102,4.0104,4.0107,4.0113,4.0041,4.0108,4.0108,4.0107,4.0107,4.0107,0,4.0271,4.026,4.0259,4.0249,4.0249,4.0226,4.0216,4.0217,4.0221,4.021,4.0208,4.0209,4.0208,4.0188,4.0185,4.0191,4.018,4.0192,4.0191,4.019,4.0126,4.0122,4.0201,4.0201,4.0201,4.0201,4.0201,4.0201,4.031,4.0323,4.0309,4.0317,4.0305,4.0309,4.0306,4.03,4.0291,4.0294,4.0293,4.028,4.0266,4.0262,4.026,4.0254,4.0255,4.0271,4.0262,4.0203,4.0194,4.0185,4.0182,4.0271,4.0271,4.0325,4.0326,4.0326]}]]